STARLINK-4608, 53621

Orbit data source: Space-Track

STARLINK-4608, 53621 is a payload satellite owned by SpaceX/Seattle (US) in LEO that was launched on Sun, 28 Aug 2022 UTC via an FALCON 9 launch vehicle from the Air Force Eastern Test Range (AFETR). Payload-class satellites include a variety of spacecraft equipped with specific instruments for various scientific and technological missions. These include communications satellites like Starlink; space stations such as the ISS; scientific satellites like the Hubble; Earth observation satellites from companies like Planet Labs, Umbra, and HawkEye 360; GPS; miniature CubeSats for education and research; and military/defense satellites.

Loading next visibility...
Identifier
53621, 2022-104AK
Orbit
LEO
Country
Flag of USUS
Related business
Manufacturer
SpaceX/Seattle
Mission
Operational Commercial Communications
Bus & Motor
STARLINK, Unknown motor
Mass
300 kg wet, ~290 kg dry
Launch date (UTC)
2022-08-28 (3 years ago)
Launch vehicle
FALCON 9
Launch site
Air Force Eastern Test Range (AFETR)
Object type
Payload
Rocket body
Debris
Shape & HBR
Box + 1 Pan, 10.1 m
Radar Cross Section
13.562 m², Large (>1 m²)

Expand to show TLE details & history
Last TLE update: 18 hours ago

TLE from 18 hours ago
0 STARLINK-4608
1 53621U 22104AK  25302.18995589  .00000094  00000-0  23983-4 0  9994
2 53621  53.2165 104.4004 0001419  87.7563 272.3591 15.08842662175784
Epoch: 2025-10-29T04:33Z
TLE epoch observation values (Epoch: 2025-10-29T04:33:32.188Z)
Latitude
-0.00009°
Longitude
-1.75044°
Altitude
540.592 km
Speed
7.593 km/s
True Right ascension
06h 57m 36s
True Declination
0° 00' 00"
Sunlit
Object was in daylight at epoch
Visualization orbit readout
Latitude
Unknown
Longitude
Unknown
Altitude
Unknown
Speed
Unknown
Apparent Right ascension
Unknown
Apparent Declination
Unknown
Sunlit
N/A
Visualization observer readout
Local Sidereal Time
17:42:26
Azimuth
Unknown
Elevation
Unknown
Doppler factor
Unknown
Orbital elements
Apogee altitude
540.962 km
Perigee altitude
538.999 km
Semi-major axis
6,918.117 km
Eccentricity
0.00014
Inclination
53.2165°
RAAN
104.4004°
Arg. of periapsis
87.7563°
True anomaly
272.34285°
Mean anomaly
272.3591°
Eccentric anomaly
272.35098°
Mean motion
3.77191 °/min
Orbital period
95.44 mins
BSTAR
0.000023983
Loading maneuver chart data...
Computing Atmospheric mass density...
Loading historical data...
Loading historical data...
Loading historical data...
Loading historical data...
Loading historical data...
Loading historical data...
Loading historical data...

Documentation

Showing up to 5 results
|